BREEZE-KM DEB, 41718

Orbit data source: Space-Track

BREEZE-KM DEB, 41718 is space debris in LEO originally from a launch on Tue, 31 Mar 2015 UTC launched from the Plesetsk Missile And Space Complex (PKMTR). Debris objects in space refer to the collection of defunct objects orbiting the Earth. Examples of debris include non-operational satellites, rocket bodies, and fragments generated from explosions, collisions, or faulty payload assembly.

Loading next visibility...
Identifier
41718, 2015-020F
Orbit
LEO
Country
Flag of CISCIS
Related business
Manufacturer
Khrunichev
Mission
Spacecraft
Bus & Motor
Unknown
Mass
Unknown
Launch date (UTC)
2015-03-31 (11 years ago)
Launch vehicle
Unknown
Launch site
Plesetsk Missile And Space Complex (PKMTR)
Object type
Payload
Rocket body
Debris
Shape & HBR
Unknown shape, 0.1 m
Radar Cross Section
Small (<0.1 m²)

Expand to show TLE details & history
Last TLE update: 5 days ago

TLE from 5 days ago
0 BREEZE-KM DEB
1 41718U 15020F   25293.36742495  .00000024  00000-0  34544-4 0  9990
2 41718  82.4879 315.8450 0229901  87.3616 275.3784 12.91302104488932
Epoch: 2025-10-20T08:49Z
TLE epoch observation values (Epoch: 2025-10-20T08:49:05.515Z)
Latitude
0.00001°
Longitude
154.50127°
Altitude
1,286.623 km
Speed
7.219 km/s
True Right ascension
21h 03m 22s
True Declination
0° 00' 00"
Sunlit
Object was in daylight at epoch
Visualization orbit readout
Latitude
Unknown
Longitude
Unknown
Altitude
Unknown
Speed
Unknown
Apparent Right ascension
Unknown
Apparent Declination
Unknown
Sunlit
N/A
Visualization observer readout
Local Sidereal Time
01:10:10
Azimuth
Unknown
Elevation
Unknown
Doppler factor
Unknown
Orbital elements
Apogee altitude
1,470.016 km
Perigee altitude
1,117.266 km
Semi-major axis
7,671.778 km
Eccentricity
0.02299
Inclination
82.4879°
RAAN
315.845°
Arg. of periapsis
87.3616°
True anomaly
272.74937°
Mean anomaly
275.3784°
Eccentric anomaly
274.06448°
Mean motion
3.22997 °/min
Orbital period
111.46 mins
BSTAR
0.000034544
Loading maneuver chart data...
Computing Atmospheric mass density...
Loading historical data...
Loading historical data...
Loading historical data...
Loading historical data...
Loading historical data...
Loading historical data...
Loading historical data...

Documentation

Showing up to 5 results
|